Location: American Medical Response
(33.3472°N, 96.5511°W)
Time: 12:25:23
(UTC+00:00)

Cosmos 1805 Rocket - Pass Details

Date: 08 December 2021
Orbit: 606 x 629 km, 82.5° (Epoch: 22 January)

Event Time Altitude Azimuth Distance (km) Brightness Sun altitude
Rises 12:34:41 0° 197° (SSW) 2,881 7.1 -9.1°
Reaches altitude 10° 12:36:57 10° 202° (SSW) 1,975 6.2 -8.6°
Maximum altitude 12:41:12 51° 278° (W) 775 3.7 -7.8°
Drops below altitude 10° 12:45:28 10° 355° (N) 1,974 5.9 -7.0°
Sets 12:47:45 0° 1° (N) 2,880 6.8 -6.5°
